Hourly Weather Roundup
Issued by NWS Central Illinois

Home | Current Version | Previous Version | Text Only | Print | Product List | Glossary On
Versions: 1 2 3 4 5 6 7 8 9 10 11 12 13 14 15 16 17 18 19 20 21 22 23 24 25 26 27 28 29 30 31 32 33 34 35 36 37 38 39 40 41 42 43 44 45 46 47 48 49 50
000
NZUS43 KILX 250010
HWRILX

Area Weather Roundup
National Weather Service Lincoln IL
700 PM CDT SAT JUN 24 2017

NOTE:  "FAIR" indicates few or no clouds below 12,000 feet, with
       no sigificant weather and/or obstructions to visibility.


CITY           SKY/WX    TMP DP  RH WIND       PRES   REMARKS
Bloomington    SUNNY     71  43  36 NW14      30.09R
6HR MIN TEMP:  71; 6HR MAX TEMP:  75;

Champaign      SUNNY     72  41  32 NW13G21   30.08R
6HR MIN TEMP:  72; 6HR MAX TEMP:  76;

Danville       SUNNY     71  45  38 NW8       30.05R
6HR MIN TEMP:  71; 6HR MAX TEMP:  74;

Decatur        SUNNY     73  40  30 NW15G24   30.10R
6HR MIN TEMP:  73; 6HR MAX TEMP:  76;

Effingham      SUNNY     75  48  38 W9        30.10S
6HR MIN TEMP:  75; 6HR MAX TEMP:  77;

Flora          CLOUDY    76  48  37 W10       30.10R
Galesburg      SUNNY     72  43  35 W9G17     30.08S
6HR MIN TEMP:  70; 6HR MAX TEMP:  73;

Jacksonville   SUNNY     73  42  32 NW15      30.11S
6HR MIN TEMP:  73; 6HR MAX TEMP:  76;

Lacon          SUNNY     72  42  34 W9G18     30.06S
6HR MIN TEMP:  71; 6HR MAX TEMP:  73;

Lawrenceville  MOSUNNY   75  51  43 NW9       30.09R
6HR MIN TEMP:  74; 6HR MAX TEMP:  79;

Litchfield     SUNNY     73  45  37 NW12      30.12R
6HR MIN TEMP:  71; 6HR MAX TEMP:  75;

$$


CITY           SKY/WX    TMP DP  RH WIND       PRES   REMARKS
Lincoln        SUNNY     74  41  30 NW6G17    30.09R
6HR MIN TEMP:  74; 6HR MAX TEMP:  78;

Macomb         SUNNY     73  42  33 W10       30.11S
6HR MIN TEMP:  72; 6HR MAX TEMP:  74;

Mattoon        MOSUNNY   74  49  41 NW13      30.08R
6HR MIN TEMP:  72; 6HR MAX TEMP:  76;

Mt Carmel AP   CLOUDY    73  50  43 NW9       30.09R
6HR MIN TEMP:  73; 6HR MAX TEMP:  77;

Olney-Noble AP SUNNY     73  51  45 W8        30.10R
Paris AP       MOSUNNY   73  51  46 NW12      30.07S
6HR MIN TEMP:  71; 6HR MAX TEMP:  75;

Peoria         SUNNY     73  42  32 NW8       30.08S
6HR MIN TEMP:  73; 6HR MAX TEMP:  75;

Pontiac        SUNNY     73  41  32 W16G23    30.07R
6HR MIN TEMP:  73; 6HR MAX TEMP:  75;

Rantoul        SUNNY     74  44  35 W14G22    30.08R
6HR MIN TEMP:  74; 6HR MAX TEMP:  77;

Robinson       MOSUNNY   73  51  45 W10       30.09S
6HR MIN TEMP:  73; 6HR MAX TEMP:  76;

Springfield    SUNNY     76  42  29 NW16      30.10R
6HR MIN TEMP:  76; 6HR MAX TEMP:  80;

Taylorville    SUNNY     73  44  35 NW9       30.10S
6HR MIN TEMP:  73; 6HR MAX TEMP:  76;

$$

...REGIONAL REPORTS...


CITY           SKY/WX    TMP DP  RH WIND       PRES   REMARKS
Chicago O`Hare MOSUNNY   71  40  32 NW22      30.00R
Kankakee       SUNNY     71  42  35 NW15      30.05R
Moline         SUNNY     74  43  32 W10       30.04F
Mount Sterling SUNNY     73  41  32 NW8       30.11S
Mount Vernon   SUNNY     75  51  43 VRB3      30.11R
Pittsfield     SUNNY     74  44  33 NW10      30.13S
Quincy         SUNNY     74  42  31 W14       30.11F
Rockford       MOSUNNY   69  42  37 W10       30.03R
$$


CITY           SKY/WX    TMP DP  RH WIND       PRES   REMARKS
Burlington     SUNNY     74  42  31 W8        30.08S
Cedar Rapids   CLOUDY    71  45  39 W14       30.02S
Des Moines     MOSUNNY   78  38  23 NW18      30.06S
Kirksville     SUNNY     74  46  36 W9        30.14S
Ottumwa        SUNNY     74  43  32 SW10      30.06F
St Louis       MOSUNNY   77  44  30 N12       30.12R
$$


CITY           SKY/WX    TMP DP  RH WIND       PRES   REMARKS
Terre Haute    MOSUNNY   74  48  39 W7        30.06S
Evansville     PTSUNNY   75  51  43 NW6       30.09R
Indianapolis   MOSUNNY   72  46  39 NW15      30.05R
Lafayette      MOSUNNY   70  48  45 W12       30.03R
Madison        LGT RAIN  55  51  86 S8        30.02R
Milwaukee      MOSUNNY   71  42  35 W17G23    29.98R
$$






USA.gov is the U.S. government's official web portal to all federal, state and local government web resources and services.